User: anonymous   Login
Location: Mason Neck State Park
(38.6428°N, 77.1981°W)
Time: 18:50:17
(UTC-04:00)
Language:

Cosmos 1400 Rocket - Orbit

View from above orbital plane
View from above orbital plane
View from above satellite
View from above satellite

Ground track
Ground track

The orbit data is extracted from the following two-line orbital elements,

1 13403U 82079B   14304.44804852  .00002787  00000-0  19723-3 0  7070
2 13403 081.1692 287.2229 0035946 194.8609 165.1561 15.04022086752294
Epoch (UTC): 31 October 2014 10:45:11
Eccentricity: 0.0035946
inclination: 81.1692°
perigee height: 529 km
apogee height: 579 km
right ascension of ascending node: 287.2229°
argument of perigee: 194.8609°
revolutions per day: 15.04022086
mean anomaly at epoch: 165.1561°
orbit number at epoch: 75229

The dashed part of the orbit path shows where the satellite is in the earth's shadow,  

DLR